Flag for Germany Weather past 2 weeks in Norden, Lower Saxony, Germany

Now
42 °F

Overcast.


Feels Like: 38 °F
Forecast: 43 / 47 °F
Wind: 6 mph from West

Location: Norderney

Current Time: Mar 28, 2015 at 5:17:55 AM

Latest Report: Mar 28, 2015 at 4:00 AM


Visibility: 9 mi

Pressure: 30.14 "Hg

Humidity: 87%

Dew point: 38 °F

Location of NordenLocation

Historic Weather in Norden — Graph

°F

Norden temperature yesterday

Maximum temperature yesterday: 44 °F (at 2:00 PM)
Minimum temperature yesterday: 41 °F (at 12:00 AM)
Average temperature yesterday: 43 °F

Past Weeks' High & Low Weather Summary

 TemperatureHumidityPressure
High53 °F (Mar 16, 3:00 PM)97% (Mar 18, 7:00 AM)30.50 "Hg (Mar 18, 7:00 AM)
Low33 °F (Mar 13, 7:00 AM)48% (Mar 22, 5:00 PM)29.63 "Hg (Mar 26, 11:00 PM)
Average42 °F82%30.16 "Hg
* Reported Mar 13 4:00 AM — Mar 28 4:00 AM, Norden, Weather by CustomWeather, © 2015

Note: Actual official high and low records may vary slightly from our data, if they occured in-between our weather recording intervals... More about our weather records

Advertising

Norden weather history for previous 24 hours

 ConditionsComfort  
Time TempWeatherWind HumidityBarometerVisibility
4:00 AM
Sat, Mar 28
42 °FOvercast.6 mph87%30.14 "Hg9 mi
3:00 AM42 °FOvercast.7 mph89%30.14 "Hg8 mi
2:00 AM43 °FOvercast.6 mph88%30.14 "Hg9 mi
1:00 AM43 °FOvercast.5 mph93%30.14 "Hg6 mi
12:00 AM43 °FOvercast.6 mph93%30.14 "Hg7 mi
11:00 PM
Fri, Mar 27
43 °FOvercast.6 mph92%30.14 "Hg9 mi
10:00 PM43 °FOvercast.6 mph92%30.13 "Hg8 mi
9:00 PM43 °FOvercast.7 mph91%30.12 "Hg7 mi
8:00 PM43 °FFog.7 mph86%30.10 "Hg3 mi
7:00 PM43 °FFog.8 mph87%30.08 "Hg3 mi
6:00 PM43 °FFog.9 mph84%30.04 "Hg2 mi
5:00 PM43 °FFog.10 mph84%30.01 "Hg2 mi
4:00 PM43 °FFog.13 mph87%29.98 "Hg2 mi
3:00 PM43 °FFog.14 mph93%29.94 "Hg1 mi
2:00 PM44 °FFog.9 mph91%29.91 "Hg4 mi
1:00 PM44 °FLow clouds.9 mph93%29.88 "Hg5 mi
12:00 PM43 °FOvercast.10 mph94%29.83 "Hg6 mi
11:00 AM43 °FLow clouds.7 mph95%29.80 "Hg7 mi
10:00 AM43 °FLow clouds.8 mph95%29.77 "Hg4 mi
9:00 AM44 °FDrizzle. Overcast.7 mph88%29.75 "Hg14 mi
8:00 AM42 °FOvercast.6 mph91%29.74 "Hg11 mi
7:00 AM42 °FOvercast.7 mph88%29.71 "Hg16 mi
6:00 AM42 °FOvercast.7 mph87%29.69 "Hg11 mi
5:00 AM42 °FOvercast.7 mph87%29.67 "Hg10 mi
Weather by CustomWeather, © 2015

See weather overviewHow to use our weather pages